Simultaneous Nadir Overpasses (SNOs) Predictions

Prediction of SNOs between GOES-16 and NPP Satellite Orbit:

Table of predicted SNOs for the next 14.0 days since TLE Epoch: 3/30/2024
Index Date Time (GOES-16) GOES-16 Lat,Lon NPP Lat,Lon Distance(km) Time Diff (sec)
1 03/30/2024 06:39:20 -0.03, -75.21 0.64, -78.09 328.17 80
2 03/31/2024 06:17:56 -0.03, -75.21 -0.41, -73.57 188.05 80
3 04/01/2024 18:39:54 0.02, -75.22 -0.78, -78.88 415.90 80
4 04/02/2024 18:23:49 0.02, -75.23 0.21, -74.34 100.70 80
5 04/04/2024 06:45:37 -0.01, -75.23 0.96, -79.62 499.56 80
6 04/05/2024 06:24:13 -0.01, -75.24 -0.04, -75.09 17.32 80
7 04/07/2024 18:27:26 0.01, -75.27 -0.13, -75.87 68.21 80
8 04/08/2024 18:11:21 0.01, -75.29 0.88, -71.34 449.41 80
9 04/10/2024 06:33:10 -0.01, -75.30 0.28, -76.62 149.34 80
10 04/11/2024 06:11:45 -0.01, -75.32 -0.73, -72.09 368.36 80
11 04/12/2024 18:33:42 0.01, -75.35 -0.42, -77.40 233.64 80
